Hourly Weather Roundup
Issued by NWS Central Illinois

Home | Current Version | Previous Version | Text Only | Print | Product List | Glossary On
Versions: 1 2 3 4 5 6 7 8 9 10 11 12 13 14 15 16 17 18 19 20 21 22 23 24 25 26 27 28 29 30 31 32 33 34 35 36 37 38 39 40 41 42 43 44 45 46 47 48 49 50
000
NZUS43 KILX 212010
HWRILX

AREA WEATHER ROUNDUP
NATIONAL WEATHER SERVICE, LINCOLN IL
200 PM CST SUN DEC 21 2014


CITY           SKY/WX    TMP DP  RH WIND       PRES   REMARKS
BLOOMINGTON    CLOUDY    36  32  85 S13       30.09F WCI  27
CHAMPAIGN      CLOUDY    37  30  75 S10       30.12F WCI  30
DECATUR        CLOUDY    37  30  75 S8        30.10F WCI  31
FLORA          MOSUNNY   41  29  63 SE7       30.13F
GALESBURG      CLOUDY    39  34  81 SE12G17   30.00F WCI  32
JACKSONVILLE   CLOUDY    42  34  74 SE16      30.04F WCI  33
LACON          CLOUDY    38  30  74 S14       30.05F WCI  29
LAWRENCEVILLE  MOSUNNY   41  30  65 SE6       30.15F
LITCHFIELD     CLOUDY    39  31  71 SE13      30.07F WCI  32
$$


CITY           SKY/WX    TMP DP  RH WIND       PRES   REMARKS
LINCOLN        CLOUDY    38  32  80 S13       30.09F WCI  30
MACOMB         CLOUDY    41  36  81 S17G23    30.03F WCI  32
MATTOON        MOSUNNY   41  30  65 SE10      30.11F WCI  35
MT CARMEL AP   MOSUNNY   43  30  61 SE8       30.14F
OLNEY-NOBLE AP MOSUNNY   39  32  75 SE8       30.13F WCI  34
PARIS          SUNNY     39  32  74 SE7       30.13F WCI  34
PEORIA         CLOUDY    40  31  70 S15       30.04F WCI  32
PONTIAC        CLOUDY    39  33  79 S13       30.10F WCI  32
RANTOUL        CLOUDY    38  32  77 S12       30.11F WCI  31
ROBINSON       MOSUNNY   39  30  69 SE8       30.16F WCI  34
SPRINGFIELD    CLOUDY    39  31  72 SE15      30.07F WCI  31
TAYLORVILLE    CLOUDY    36  32  87 SE12      30.09F WCI  27
$$

...REGIONAL REPORTS...


CITY           SKY/WX    TMP DP  RH WIND       PRES   REMARKS
CHICAGO O`HARE CLOUDY    36  28  73 S15       30.09F WCI  27
KANKAKEE       CLOUDY    38  31  75 S8        30.12F WCI  32
MOLINE         CLOUDY    41  33  73 S12       29.99F WCI  34
MOUNT VERNON   PTSUNNY   45  30  57 E7        30.11F
PITTSFIELD     CLOUDY    43  37  78 SE12      30.02F
QUINCY         CLOUDY    44  35  70 S13       29.97F
ROCKFORD       CLOUDY    37  31  78 S17       30.05F WCI  27
$$


CITY           SKY/WX    TMP DP  RH WIND       PRES   REMARKS
BURLINGTON     CLOUDY    42  35  76 S10       29.96F
CEDAR RAPIDS   CLOUDY    39  36  89 S16G23    29.90F WCI  30
DES MOINES     CLOUDY    42  35  76 S21G26    29.84F WCI  33
KIRKSVILLE     CLOUDY    45  39  79 S14       29.92F
OTTUMWA        CLOUDY    42  36  79 S15       29.90F WCI  34
ST LOUIS       CLOUDY    44  32  62 SE14      30.06F
$$


CITY           SKY/WX    TMP DP  RH WIND       PRES   REMARKS
TERRE HAUTE    SUNNY     39  29  67 SE9       30.15F WCI  33
EVANSVILLE     MOSUNNY   44  30  57 E5        30.15F
INDIANAPOLIS   PTSUNNY   36  27  69 E7        30.16F WCI  30
LAFAYETTE      SUNNY     38  29  70 SE7       30.15F WCI  33
MADISON        CLOUDY    36  32  85 S14       29.99F WCI  27
MILWAUKEE      CLOUDY    36  29  75 S10       30.07F WCI  28
$$




USA.gov is the U.S. government's official web portal to all federal, state and local government web resources and services.